カタログに戻る

STARLINK-30303

運用中通信VLEO
NORAD 57677·PAYLOAD·🇺🇸 United States

打ち上げ Aug 22, 2023 から Vandenberg Space Force Base

Loading…

次のパス (今後24時間)

TLE

最新Source: CelesTrak SupGP

元期: Sep 15, 2026, 02:01 UTC

1 57677C 23124Q   26258.08451389 -.00020923  00000+0 -61832-3 0  2583
2 57677  53.1593  44.7791 0001255  88.1688  61.6354 15.34392915    12

AllMySatでSTARLINK-30303をリアルタイム追跡

Download on the App Store